User: anonymous   Login
Location: Unspecified
(48.7670°N, 0.0000°E)
Time: 23:02:20
(UTC+00:00)
Language:

AO-92 - Orbit

View from above orbital plane
View from above orbital plane
View from above satellite
View from above satellite

Ground track
Ground track

The orbit data is extracted from the following two-line orbital elements,

1 43137U 18004AC  19200.23694314  .00000559  00000-0  26439-4 0  9992
2 43137  97.4860 267.9698 0010335 141.6382 218.5592 15.23496087 84142
Epoch (UTC): 19 July 2019 05:41:11
Eccentricity: 0.0010335
inclination: 97.4860°
perigee height: 488 km
apogee height: 502 km
right ascension of ascending node: 267.9698°
argument of perigee: 141.6382°
revolutions per day: 15.23496087
mean anomaly at epoch: 218.5592°
orbit number at epoch: 8414

The dashed part of the orbit path shows where the satellite is in the earth's shadow,  

DLR